Zurück zum Katalog

ARIANE 5 R/B

AktivHEO
NORAD 33057·ROCKET BODY·🇫🇷 France

Gestartet Jun 12, 2008 von Guiana Space Centre

Loading…

Nächste Überflüge (nächste 24 Stunden)

TLE

AktuellSource: Space-Track

Epoche: Sep 14, 2026, 04:24 UTC

1 33057U 08030C   26257.18354205  .00002164  00000-0  63022-3 0  9998
2 33057   1.7683 325.3317 7017188 348.9862   1.5419  2.61438453161555

Verfolge ARIANE 5 R/B in Echtzeit mit AllMySat

Download on the App Store